Time,TemperatureF,DewpointF,PressureIn,WindDirection,WindDirectionDegrees,WindSpeedMPH,WindSpeedGustMPH,Humidity,HourlyPrecipIn,Conditions,Clouds,dailyrainin,SoftwareType,DateUTC
2013-03-07 00:02:00,15.8,8.6,21.70,NW,315,2.0,2.0,73,0.00,,,0.01,meteohub,2013-03-07 06:02:00,
2013-03-07 00:07:00,15.8,8.6,21.70,NW,315,2.0,2.0,73,0.00,,,0.01,meteohub,2013-03-07 06:07:00,
2013-03-07 00:12:00,15.6,8.8,21.70,NW,315,2.0,2.0,74,0.00,,,0.01,meteohub,2013-03-07 06:12:00,
2013-03-07 00:16:00,15.6,8.8,21.69,North,0,2.0,3.0,74,0.00,,,0.01,meteohub,2013-03-07 06:16:00,
2013-03-07 00:22:00,15.4,8.6,21.69,NW,315,2.0,3.0,74,0.00,,,0.01,meteohub,2013-03-07 06:22:00,
2013-03-07 00:27:00,15.3,8.2,21.69,NW,315,2.0,3.0,73,0.00,,,0.01,meteohub,2013-03-07 06:27:00,
2013-03-07 00:32:00,15.1,8.1,21.69,NW,315,2.0,3.0,73,0.00,,,0.01,meteohub,2013-03-07 06:32:00,
2013-03-07 00:37:00,15.1,8.1,21.69,NW,315,2.0,2.0,73,0.00,,,0.01,meteohub,2013-03-07 06:37:00,
2013-03-07 00:42:00,15.3,8.2,21.69,North,0,3.0,3.0,73,0.00,,,0.01,meteohub,2013-03-07 06:42:00,
2013-03-07 00:47:00,15.4,8.4,21.69,North,0,2.0,3.0,73,0.00,,,0.01,meteohub,2013-03-07 06:47:00,
2013-03-07 00:52:00,15.3,8.2,21.68,NW,315,2.0,3.0,73,0.00,,,0.01,meteohub,2013-03-07 06:52:00,
2013-03-07 00:57:00,14.9,7.9,21.68,NW,315,2.0,3.0,73,0.00,,,0.01,meteohub,2013-03-07 06:57:00,
2013-03-07 01:02:00,14.7,7.3,21.69,NW,315,0.0,3.0,72,0.00,,,0.01,meteohub,2013-03-07 07:02:00,
2013-03-07 01:07:00,14.7,7.3,21.69,NW,315,0.0,2.0,72,0.00,,,0.01,meteohub,2013-03-07 07:07:00,
2013-03-07 01:12:00,14.7,7.3,21.69,West,270,2.0,2.0,72,0.00,,,0.01,meteohub,2013-03-07 07:12:00,
2013-03-07 01:17:00,14.9,7.5,21.68,NW,315,2.0,2.0,72,0.00,,,0.01,meteohub,2013-03-07 07:17:00,
2013-03-07 01:22:00,14.7,7.3,21.68,NW,315,1.0,2.0,72,0.00,,,0.01,meteohub,2013-03-07 07:22:00,
2013-03-07 01:27:00,14.7,7.3,21.68,NW,315,0.0,2.0,72,0.00,,,0.01,meteohub,2013-03-07 07:27:00,
2013-03-07 01:32:00,14.4,7.0,21.68,NW,315,2.0,2.0,72,0.00,,,0.01,meteohub,2013-03-07 07:32:00,
2013-03-07 01:37:00,14.4,7.0,21.68,North,0,2.0,3.0,72,0.00,,,0.01,meteohub,2013-03-07 07:37:00,
2013-03-07 01:42:00,14.4,7.0,21.68,North,0,3.0,3.0,72,0.00,,,0.01,meteohub,2013-03-07 07:42:00,
2013-03-07 01:47:00,14.4,7.0,21.68,West,270,2.0,3.0,72,0.00,,,0.01,meteohub,2013-03-07 07:47:00,
2013-03-07 01:52:00,14.2,6.8,21.67,West,270,1.0,3.0,72,0.00,,,0.01,meteohub,2013-03-07 07:52:00,
2013-03-07 01:57:00,13.6,6.6,21.68,NW,315,0.0,3.0,73,0.00,,,0.01,meteohub,2013-03-07 07:57:00,
2013-03-07 02:02:00,13.3,6.3,21.68,NW,315,2.0,2.0,73,0.00,,,0.01,meteohub,2013-03-07 08:02:00,
2013-03-07 02:07:00,13.3,6.3,21.68,NW,315,2.0,2.0,73,0.00,,,0.01,meteohub,2013-03-07 08:07:00,
2013-03-07 02:12:00,13.5,6.4,21.67,NW,315,2.0,2.0,73,0.00,,,0.01,meteohub,2013-03-07 08:12:00,
2013-03-07 02:17:00,13.5,6.4,21.68,NW,315,2.0,3.0,73,0.00,,,0.01,meteohub,2013-03-07 08:17:00,
2013-03-07 02:22:00,13.5,6.4,21.67,North,0,2.0,3.0,73,0.00,,,0.01,meteohub,2013-03-07 08:22:00,
2013-03-07 02:27:00,13.5,6.4,21.68,North,0,1.0,3.0,73,0.00,,,0.01,meteohub,2013-03-07 08:27:00,
2013-03-07 02:32:00,13.3,6.3,21.68,North,0,2.0,2.0,73,0.00,,,0.01,meteohub,2013-03-07 08:32:00,
2013-03-07 02:37:00,13.1,6.1,21.68,North,0,0.0,2.0,73,0.00,,,0.01,meteohub,2013-03-07 08:37:00,
2013-03-07 02:42:00,13.1,6.1,21.68,NW,315,2.0,2.0,73,0.00,,,0.01,meteohub,2013-03-07 08:42:00,
2013-03-07 02:47:00,12.7,5.7,21.68,NW,315,1.0,2.0,73,0.00,,,0.01,meteohub,2013-03-07 08:47:00,
2013-03-07 02:52:00,12.2,5.2,21.68,NW,315,0.0,2.0,73,0.00,,,0.01,meteohub,2013-03-07 08:52:00,
2013-03-07 02:57:00,11.8,5.2,21.68,NW,315,0.0,2.0,74,0.00,,,0.01,meteohub,2013-03-07 08:57:00,
2013-03-07 03:02:00,11.5,4.8,21.68,NW,315,0.0,1.0,74,0.00,,,0.01,meteohub,2013-03-07 09:02:00,
2013-03-07 03:07:00,11.3,4.6,21.68,SE,135,0.0,0.0,74,0.00,,,0.01,meteohub,2013-03-07 09:07:00,
2013-03-07 03:12:00,11.1,4.5,21.68,West,270,0.0,1.0,74,0.00,,,0.01,meteohub,2013-03-07 09:12:00,
2013-03-07 03:17:00,10.8,3.7,21.68,West,270,0.0,1.0,73,0.00,,,0.01,meteohub,2013-03-07 09:17:00,
2013-03-07 03:22:00,10.4,3.4,21.68,North,0,0.0,1.0,73,0.00,,,0.01,meteohub,2013-03-07 09:22:00,
2013-03-07 03:27:00,10.2,2.1,21.68,North,0,0.0,1.0,69,0.00,,,0.01,meteohub,2013-03-07 09:27:00,
2013-03-07 03:32:00,10.0,1.9,21.68,North,0,0.0,1.0,69,0.00,,,0.01,meteohub,2013-03-07 09:32:00,
2013-03-07 03:37:00,9.7,1.6,21.68,North,0,0.0,0.0,69,0.00,,,0.01,meteohub,2013-03-07 09:37:00,
2013-03-07 03:42:00,9.5,1.4,21.68,North,0,0.0,0.0,69,0.00,,,0.01,meteohub,2013-03-07 09:42:00,
2013-03-07 03:47:00,9.5,1.4,21.68,NW,315,1.0,0.0,69,0.00,,,0.01,meteohub,2013-03-07 09:47:00,
2013-03-07 03:52:00,9.5,1.4,21.68,North,0,0.0,1.0,69,0.00,,,0.01,meteohub,2013-03-07 09:52:00,
2013-03-07 03:57:00,9.7,1.6,21.67,North,0,0.0,2.0,69,0.00,,,0.01,meteohub,2013-03-07 09:57:00,
2013-03-07 04:02:00,9.7,1.6,21.68,NW,315,2.0,2.0,69,0.00,,,0.01,meteohub,2013-03-07 10:02:00,
2013-03-07 04:07:00,9.7,1.6,21.68,NW,315,1.0,2.0,69,0.00,,,0.01,meteohub,2013-03-07 10:07:00,
2013-03-07 04:12:00,9.5,1.4,21.67,NE,45,0.0,2.0,69,0.00,,,0.01,meteohub,2013-03-07 10:12:00,
2013-03-07 04:17:00,9.1,1.0,21.67,North,0,1.0,2.0,69,0.00,,,0.01,meteohub,2013-03-07 10:17:00,
2013-03-07 04:22:00,9.0,0.9,21.67,North,0,0.0,2.0,69,0.00,,,0.01,meteohub,2013-03-07 10:22:00,
2013-03-07 04:27:00,8.8,0.7,21.67,North,0,0.0,2.0,69,0.00,,,0.01,meteohub,2013-03-07 10:27:00,
2013-03-07 04:32:00,8.4,0.7,21.67,North,0,0.0,2.0,70,0.00,,,0.01,meteohub,2013-03-07 10:32:00,
2013-03-07 04:38:00,8.2,0.5,21.67,North,0,0.0,1.0,70,0.00,,,0.01,meteohub,2013-03-07 10:38:00,
2013-03-07 04:42:00,8.1,0.3,21.66,North,0,0.0,0.0,70,0.00,,,0.01,meteohub,2013-03-07 10:42:00,
2013-03-07 04:48:00,8.1,0.3,21.66,NW,315,2.0,0.0,70,0.00,,,0.01,meteohub,2013-03-07 10:48:00,
2013-03-07 04:53:00,8.2,0.5,21.66,NW,315,2.0,2.0,70,0.00,,,0.01,meteohub,2013-03-07 10:53:00,
2013-03-07 04:58:00,8.2,0.5,21.66,North,0,1.0,2.0,70,0.00,,,0.01,meteohub,2013-03-07 10:58:00,
2013-03-07 05:03:00,8.2,0.5,21.66,North,0,0.0,2.0,70,0.00,,,0.01,meteohub,2013-03-07 11:03:00,
2013-03-07 05:07:00,8.1,0.3,21.66,NW,315,0.0,2.0,70,0.00,,,0.01,meteohub,2013-03-07 11:07:00,
2013-03-07 05:12:00,7.9,0.1,21.66,NW,315,0.0,2.0,70,0.00,,,0.01,meteohub,2013-03-07 11:12:00,
2013-03-07 05:18:00,7.7,0.0,21.66,NW,315,1.0,2.0,70,0.00,,,0.01,meteohub,2013-03-07 11:18:00,
2013-03-07 05:23:00,7.5,-0.2,21.66,NW,315,0.0,2.0,70,0.00,,,0.01,meteohub,2013-03-07 11:23:00,
2013-03-07 05:28:00,7.3,-0.8,21.66,NW,315,2.0,2.0,69,0.00,,,0.01,meteohub,2013-03-07 11:28:00,
2013-03-07 05:33:00,7.2,-0.9,21.66,North,0,2.0,2.0,69,0.00,,,0.01,meteohub,2013-03-07 11:33:00,
2013-03-07 05:38:00,7.2,-0.9,21.65,North,0,1.0,2.0,69,0.00,,,0.01,meteohub,2013-03-07 11:38:00,
2013-03-07 05:43:00,7.2,-0.9,21.66,NW,315,0.0,2.0,69,0.00,,,0.01,meteohub,2013-03-07 11:43:00,
2013-03-07 05:48:00,6.8,-1.1,21.66,NW,315,0.0,2.0,69,0.00,,,0.01,meteohub,2013-03-07 11:48:00,
2013-03-07 05:53:00,6.8,-1.1,21.66,NW,315,0.0,2.0,69,0.00,,,0.01,meteohub,2013-03-07 11:53:00,
2013-03-07 05:58:00,6.6,-1.1,21.65,NW,315,0.0,0.0,70,0.00,,,0.01,meteohub,2013-03-07 11:58:00,
2013-03-07 06:03:00,6.6,-1.1,21.65,NW,315,0.0,0.0,70,0.00,,,0.01,meteohub,2013-03-07 12:03:00,
2013-03-07 06:08:00,6.4,-1.3,21.65,NW,315,0.0,0.0,70,0.00,,,0.01,meteohub,2013-03-07 12:08:00,
2013-03-07 06:13:00,6.3,-1.5,21.65,NW,315,0.0,0.0,70,0.00,,,0.01,meteohub,2013-03-07 12:13:00,
2013-03-07 06:18:00,6.3,-1.5,21.64,NW,315,0.0,2.0,70,0.00,,,0.01,meteohub,2013-03-07 12:18:00,
2013-03-07 06:23:00,6.3,-1.5,21.64,NW,315,1.0,2.0,70,0.00,,,0.01,meteohub,2013-03-07 12:23:00,
2013-03-07 06:28:00,6.3,-1.5,21.64,NW,315,1.0,2.0,70,0.00,,,0.01,meteohub,2013-03-07 12:28:00,
2013-03-07 06:33:00,6.4,-1.3,21.64,North,0,0.0,1.0,70,0.00,,,0.01,meteohub,2013-03-07 12:33:00,
2013-03-07 06:38:00,6.6,-1.1,21.63,North,0,1.0,1.0,70,0.00,,,0.01,meteohub,2013-03-07 12:38:00,
2013-03-07 06:43:00,6.3,-1.5,21.63,NE,45,1.0,1.0,70,0.00,,,0.01,meteohub,2013-03-07 12:43:00,
2013-03-07 06:48:00,6.4,-1.3,21.63,North,0,1.0,1.0,70,0.00,,,0.01,meteohub,2013-03-07 12:48:00,
2013-03-07 06:53:00,6.4,-1.3,21.63,North,0,0.0,1.0,70,0.00,,,0.01,meteohub,2013-03-07 12:53:00,
2013-03-07 06:58:00,7.2,-0.9,21.63,North,0,0.0,1.0,69,0.00,,,0.01,meteohub,2013-03-07 12:58:00,
2013-03-07 07:03:00,8.4,0.3,21.63,NE,45,0.0,1.0,69,0.00,,,0.01,meteohub,2013-03-07 13:03:00,
2013-03-07 07:08:00,9.3,1.2,21.63,NW,315,1.0,1.0,69,0.00,,,0.01,meteohub,2013-03-07 13:08:00,
2013-03-07 07:13:00,9.7,1.6,21.63,North,0,1.0,1.0,69,0.00,,,0.01,meteohub,2013-03-07 13:13:00,
2013-03-07 07:18:00,10.0,1.9,21.63,NW,315,1.0,1.0,69,0.00,,,0.01,meteohub,2013-03-07 13:18:00,
2013-03-07 07:23:00,10.9,3.9,21.63,North,0,0.0,2.0,73,0.00,,,0.01,meteohub,2013-03-07 13:23:00,
2013-03-07 07:28:00,12.4,5.0,21.63,North,0,1.0,2.0,72,0.00,,,0.01,meteohub,2013-03-07 13:28:00,
2013-03-07 07:33:00,14.4,7.0,21.63,NW,315,1.0,2.0,72,0.00,,,0.01,meteohub,2013-03-07 13:33:00,
2013-03-07 07:38:00,15.6,8.2,21.62,North,0,1.0,1.0,72,0.00,,,0.01,meteohub,2013-03-07 13:38:00,
2013-03-07 07:43:00,16.7,9.0,21.62,NW,315,2.0,2.0,71,0.00,,,0.01,meteohub,2013-03-07 13:43:00,
2013-03-07 07:48:00,16.5,7.5,21.62,NW,315,2.0,2.0,67,0.00,,,0.01,meteohub,2013-03-07 13:48:00,
2013-03-07 07:53:00,16.9,6.4,21.62,NW,315,2.0,2.0,63,0.00,,,0.01,meteohub,2013-03-07 13:53:00,
2013-03-07 07:58:00,17.8,6.3,21.62,NW,315,2.0,2.0,60,0.00,,,0.01,meteohub,2013-03-07 13:58:00,
2013-03-07 08:03:00,18.1,6.6,21.62,West,270,2.0,2.0,60,0.00,,,0.01,meteohub,2013-03-07 14:03:00,
2013-03-07 08:08:00,20.8,10.2,21.62,NW,315,0.0,2.0,63,0.00,,,0.01,meteohub,2013-03-07 14:08:00,
2013-03-07 08:13:00,23.7,12.2,21.62,NW,315,2.0,2.0,61,0.00,,,0.01,meteohub,2013-03-07 14:13:00,
2013-03-07 08:18:00,23.5,10.6,21.61,NW,315,2.0,2.0,57,0.00,,,0.01,meteohub,2013-03-07 14:18:00,
2013-03-07 08:23:00,24.3,10.4,21.61,East,90,0.0,2.0,55,0.00,,,0.01,meteohub,2013-03-07 14:23:00,
2013-03-07 08:28:00,27.3,13.3,21.61,West,270,1.0,2.0,55,0.00,,,0.01,meteohub,2013-03-07 14:28:00,
2013-03-07 08:33:00,28.8,15.1,21.62,SE,135,1.0,2.0,56,0.00,,,0.01,meteohub,2013-03-07 14:33:00,
2013-03-07 08:38:00,30.9,17.1,21.61,SE,135,1.0,2.0,56,0.00,,,0.01,meteohub,2013-03-07 14:38:00,
2013-03-07 08:43:00,31.3,15.3,21.61,East,90,2.0,2.0,51,0.00,,,0.01,meteohub,2013-03-07 14:43:00,
2013-03-07 08:48:00,30.4,13.1,21.61,East,90,2.0,2.0,48,0.00,,,0.01,meteohub,2013-03-07 14:48:00,
2013-03-07 08:53:00,30.0,12.7,21.61,East,90,2.0,2.0,48,0.00,,,0.01,meteohub,2013-03-07 14:53:00,
2013-03-07 08:58:00,30.7,12.9,21.61,SE,135,2.0,2.0,47,0.00,,,0.01,meteohub,2013-03-07 14:58:00,
2013-03-07 09:03:00,33.1,16.0,21.61,SE,135,2.0,2.0,49,0.00,,,0.01,meteohub,2013-03-07 15:03:00,
2013-03-07 09:08:00,34.2,15.1,21.61,SW,225,1.0,2.0,45,0.00,,,0.01,meteohub,2013-03-07 15:08:00,
2013-03-07 09:13:00,35.1,15.8,21.61,SW,225,2.0,2.0,45,0.00,,,0.01,meteohub,2013-03-07 15:13:00,
2013-03-07 09:18:00,32.9,12.4,21.61,NW,315,2.0,2.0,42,0.00,,,0.01,meteohub,2013-03-07 15:18:00,
2013-03-07 09:23:00,32.7,12.7,21.61,SW,225,2.0,2.0,43,0.00,,,0.01,meteohub,2013-03-07 15:23:00,
2013-03-07 09:28:00,32.0,12.0,21.61,SW,225,1.0,2.0,43,0.00,,,0.01,meteohub,2013-03-07 15:28:00,
2013-03-07 09:33:00,32.7,13.3,21.61,NW,315,2.0,2.0,44,0.00,,,0.01,meteohub,2013-03-07 15:33:00,
2013-03-07 09:38:00,32.0,12.6,21.62,SW,225,2.0,2.0,44,0.00,,,0.01,meteohub,2013-03-07 15:38:00,
2013-03-07 09:43:00,33.1,13.5,21.62,South,180,3.0,4.0,44,0.00,,,0.01,meteohub,2013-03-07 15:43:00,
2013-03-07 09:48:00,35.4,14.5,21.62,NW,315,4.0,4.0,42,0.00,,,0.01,meteohub,2013-03-07 15:48:00,
2013-03-07 09:53:00,34.7,12.9,21.62,SE,135,2.0,4.0,40,0.00,,,0.01,meteohub,2013-03-07 15:53:00,
2013-03-07 09:58:00,32.5,11.5,21.62,South,180,6.0,6.0,41,0.00,,,0.01,meteohub,2013-03-07 15:58:00,
2013-03-07 10:03:00,31.8,11.3,21.62,SE,135,4.0,7.0,42,0.00,,,0.01,meteohub,2013-03-07 16:03:00,
2013-03-07 10:08:00,30.6,11.3,21.62,SW,225,5.0,7.0,44,0.00,,,0.01,meteohub,2013-03-07 16:08:00,
2013-03-07 10:13:00,30.4,12.0,21.62,SW,225,7.0,8.0,46,0.00,,,0.01,meteohub,2013-03-07 16:13:00,
2013-03-07 10:18:00,31.3,13.5,21.61,SE,135,4.0,8.0,47,0.00,,,0.01,meteohub,2013-03-07 16:18:00,
2013-03-07 10:23:00,32.5,13.6,21.61,West,270,5.0,8.0,45,0.00,,,0.01,meteohub,2013-03-07 16:23:00,
2013-03-07 10:28:00,31.8,13.5,21.61,West,270,4.0,8.0,46,0.00,,,0.01,meteohub,2013-03-07 16:28:00,
2013-03-07 10:33:00,31.8,13.8,21.61,SW,225,6.0,7.0,47,0.00,,,0.01,meteohub,2013-03-07 16:33:00,
2013-03-07 10:38:00,32.0,14.5,21.61,SSW,203,4.0,7.0,48,0.00,,,0.01,meteohub,2013-03-07 16:38:00,
2013-03-07 10:43:00,33.8,16.7,21.61,SW,225,3.0,8.0,49,0.00,,,0.01,meteohub,2013-03-07 16:43:00,
2013-03-07 10:48:00,34.9,17.2,21.61,East,90,2.0,8.0,48,0.00,,,0.01,meteohub,2013-03-07 16:48:00,
2013-03-07 10:53:00,37.6,19.2,21.61,South,180,4.0,8.0,47,0.00,,,0.01,meteohub,2013-03-07 16:53:00,
2013-03-07 10:58:00,39.0,19.4,21.61,SE,135,4.0,4.0,45,0.00,,,0.01,meteohub,2013-03-07 16:58:00,
2013-03-07 11:03:00,38.7,18.1,21.61,SE,135,4.0,5.0,43,0.00,,,0.01,meteohub,2013-03-07 17:03:00,
2013-03-07 11:08:00,40.1,19.4,21.61,SE,135,2.0,5.0,43,0.00,,,0.01,meteohub,2013-03-07 17:08:00,
2013-03-07 11:13:00,41.5,19.6,21.61,East,90,4.0,5.0,41,0.00,,,0.01,meteohub,2013-03-07 17:13:00,
2013-03-07 11:18:00,40.6,18.9,21.62,South,180,4.0,4.0,41,0.00,,,0.01,meteohub,2013-03-07 17:18:00,
2013-03-07 11:24:00,42.4,19.8,21.62,South,180,4.0,4.0,40,0.00,,,0.01,meteohub,2013-03-07 17:24:00,
2013-03-07 11:28:00,40.5,17.4,21.62,South,180,2.0,4.0,39,0.00,,,0.01,meteohub,2013-03-07 17:28:00,
2013-03-07 11:33:00,39.6,17.8,21.62,South,180,2.0,5.0,41,0.00,,,0.01,meteohub,2013-03-07 17:33:00,
2013-03-07 11:39:00,40.5,18.7,21.62,West,270,4.0,5.0,41,0.00,,,0.01,meteohub,2013-03-07 17:39:00,
2013-03-07 11:44:00,39.6,18.3,21.62,East,90,3.0,5.0,42,0.00,,,0.01,meteohub,2013-03-07 17:44:00,
2013-03-07 11:49:00,39.4,18.1,21.62,SW,225,4.0,5.0,42,0.00,,,0.01,meteohub,2013-03-07 17:49:00,
2013-03-07 11:54:00,37.9,17.4,21.62,NW,315,4.0,7.0,43,0.00,,,0.01,meteohub,2013-03-07 17:54:00,
2013-03-07 11:59:00,37.2,14.5,21.62,WSW,248,4.0,7.0,39,0.00,,,0.01,meteohub,2013-03-07 17:59:00,
2013-03-07 12:04:00,37.2,14.5,21.62,West,270,4.0,7.0,39,0.00,,,0.01,meteohub,2013-03-07 18:04:00,
2013-03-07 12:08:00,36.5,14.5,21.63,West,270,5.0,5.0,40,0.00,,,0.01,meteohub,2013-03-07 18:08:00,
2013-03-07 12:13:00,36.1,14.2,21.62,SW,225,4.0,5.0,40,0.00,,,0.01,meteohub,2013-03-07 18:13:00,
2013-03-07 12:18:00,39.0,19.4,21.62,East,90,3.0,5.0,45,0.00,,,0.01,meteohub,2013-03-07 18:18:00,
2013-03-07 12:24:00,41.9,19.4,21.63,SE,135,3.0,5.0,40,0.00,,,0.01,meteohub,2013-03-07 18:24:00,
2013-03-07 12:29:00,42.6,18.9,21.63,SW,225,4.0,5.0,38,0.00,,,0.01,meteohub,2013-03-07 18:29:00,
2013-03-07 12:34:00,39.2,15.1,21.63,West,270,3.0,3.0,37,0.00,,,0.01,meteohub,2013-03-07 18:34:00,
2013-03-07 12:39:00,40.3,18.5,21.63,SW,225,1.0,7.0,41,0.00,,,0.01,meteohub,2013-03-07 18:39:00,
2013-03-07 12:44:00,43.3,19.4,21.63,SE,135,2.0,7.0,38,0.00,,,0.01,meteohub,2013-03-07 18:44:00,
2013-03-07 12:49:00,43.3,15.4,21.63,South,180,3.0,4.0,32,0.00,,,0.01,meteohub,2013-03-07 18:49:00,
2013-03-07 12:54:00,42.4,14.7,21.64,East,90,4.0,5.0,32,0.00,,,0.01,meteohub,2013-03-07 18:54:00,
2013-03-07 12:59:00,41.9,14.9,21.63,NNE,23,2.0,5.0,33,0.00,,,0.01,meteohub,2013-03-07 18:59:00,
2013-03-07 13:04:00,42.4,15.4,21.64,South,180,2.0,5.0,33,0.00,,,0.01,meteohub,2013-03-07 19:04:00,
2013-03-07 13:09:00,42.6,15.4,21.64,West,270,2.0,4.0,33,0.00,,,0.01,meteohub,2013-03-07 19:09:00,
2013-03-07 13:14:00,44.2,18.3,21.63,SW,225,2.0,4.0,35,0.00,,,0.01,meteohub,2013-03-07 19:14:00,
2013-03-07 13:19:00,45.0,16.9,21.64,South,180,6.0,6.0,32,0.00,,,0.01,meteohub,2013-03-07 19:19:00,
2013-03-07 13:24:00,41.4,15.1,21.64,South,180,4.0,6.0,34,0.00,,,0.01,meteohub,2013-03-07 19:24:00,
2013-03-07 13:29:00,43.3,18.1,21.64,South,180,1.0,8.0,36,0.00,,,0.01,meteohub,2013-03-07 19:29:00,
2013-03-07 13:34:00,46.2,18.0,21.64,East,90,3.0,8.0,32,0.00,,,0.01,meteohub,2013-03-07 19:34:00,
2013-03-07 13:39:00,43.3,12.4,21.64,East,90,6.0,8.0,28,0.00,,,0.01,meteohub,2013-03-07 19:39:00,
2013-03-07 13:44:00,42.6,14.9,21.65,SW,225,4.0,4.0,32,0.00,,,0.01,meteohub,2013-03-07 19:44:00,
2013-03-07 13:49:00,42.8,15.6,21.64,South,180,3.0,6.0,33,0.00,,,0.01,meteohub,2013-03-07 19:49:00,
2013-03-07 13:54:00,40.8,14.5,21.64,South,180,4.0,6.0,34,0.00,,,0.01,meteohub,2013-03-07 19:54:00,
2013-03-07 13:59:00,39.0,14.9,21.65,NW,315,5.0,5.0,37,0.00,,,0.01,meteohub,2013-03-07 19:59:00,
2013-03-07 14:04:00,39.0,15.6,21.65,SW,225,3.0,7.0,38,0.00,,,0.01,meteohub,2013-03-07 20:04:00,
2013-03-07 14:09:00,38.5,15.6,21.65,SE,135,4.0,7.0,39,0.00,,,0.01,meteohub,2013-03-07 20:09:00,
2013-03-07 14:14:00,39.4,14.7,21.65,NW,315,5.0,7.0,36,0.00,,,0.01,meteohub,2013-03-07 20:14:00,
2013-03-07 14:19:00,39.7,15.6,21.65,West,270,6.0,6.0,37,0.00,,,0.01,meteohub,2013-03-07 20:19:00,
2013-03-07 14:24:00,39.2,15.8,21.65,NW,315,4.0,6.0,38,0.00,,,0.01,meteohub,2013-03-07 20:24:00,
2013-03-07 14:29:00,38.8,14.7,21.65,NW,315,5.0,6.0,37,0.00,,,0.01,meteohub,2013-03-07 20:29:00,
2013-03-07 14:34:00,39.2,15.1,21.64,SW,225,5.0,6.0,37,0.00,,,0.01,meteohub,2013-03-07 20:34:00,
2013-03-07 14:39:00,42.3,17.8,21.64,North,0,3.0,6.0,37,0.00,,,0.01,meteohub,2013-03-07 20:39:00,
2013-03-07 14:44:00,41.7,14.0,21.65,North,0,3.0,6.0,32,0.00,,,0.01,meteohub,2013-03-07 20:44:00,
2013-03-07 14:49:00,42.3,14.5,21.65,West,270,6.0,6.0,32,0.00,,,0.01,meteohub,2013-03-07 20:49:00,
2013-03-07 14:54:00,39.7,12.9,21.65,South,180,2.0,5.0,33,0.00,,,0.01,meteohub,2013-03-07 20:54:00,
2013-03-07 14:59:00,40.5,14.4,21.65,SW,225,4.0,6.0,34,0.00,,,0.01,meteohub,2013-03-07 20:59:00,
2013-03-07 15:04:00,39.7,13.6,21.65,West,270,4.0,6.0,34,0.00,,,0.01,meteohub,2013-03-07 21:04:00,
2013-03-07 15:09:00,39.4,13.3,21.65,SW,225,1.0,5.0,34,0.00,,,0.01,meteohub,2013-03-07 21:09:00,
2013-03-07 15:14:00,41.2,14.9,21.65,SW,225,2.0,4.0,34,0.00,,,0.01,meteohub,2013-03-07 21:14:00,
2013-03-07 15:19:00,41.2,13.5,21.65,West,270,3.0,4.0,32,0.00,,,0.01,meteohub,2013-03-07 21:19:00,
2013-03-07 15:24:00,42.4,15.4,21.65,West,270,2.0,4.0,33,0.00,,,0.01,meteohub,2013-03-07 21:24:00,
2013-03-07 15:29:00,42.4,14.0,21.65,West,270,2.0,3.0,31,0.00,,,0.01,meteohub,2013-03-07 21:29:00,
2013-03-07 15:34:00,42.6,15.4,21.65,WSW,248,4.0,4.0,33,0.00,,,0.01,meteohub,2013-03-07 21:34:00,
2013-03-07 15:39:00,41.0,14.0,21.65,SW,225,5.0,5.0,33,0.00,,,0.01,meteohub,2013-03-07 21:39:00,
2013-03-07 15:44:00,40.6,15.1,21.66,West,270,3.0,5.0,35,0.00,,,0.01,meteohub,2013-03-07 21:44:00,
2013-03-07 15:49:00,39.9,14.5,21.66,SE,135,3.0,5.0,35,0.00,,,0.01,meteohub,2013-03-07 21:49:00,
2013-03-07 15:54:00,42.6,16.9,21.65,South,180,2.0,5.0,35,0.00,,,0.01,meteohub,2013-03-07 21:54:00,
2013-03-07 15:59:00,45.0,16.2,21.66,South,180,3.0,5.0,31,0.00,,,0.01,meteohub,2013-03-07 21:59:00,
2013-03-07 16:04:00,45.1,16.3,21.65,SE,135,2.0,5.0,31,0.00,,,0.01,meteohub,2013-03-07 22:04:00,
2013-03-07 16:09:00,43.7,14.4,21.65,West,270,2.0,3.0,30,0.00,,,0.01,meteohub,2013-03-07 22:09:00,
2013-03-07 16:14:00,41.7,13.3,21.65,West,270,3.0,3.0,31,0.00,,,0.01,meteohub,2013-03-07 22:14:00,
2013-03-07 16:19:00,38.7,14.0,21.65,SSW,203,5.0,5.0,36,0.00,,,0.01,meteohub,2013-03-07 22:19:00,
2013-03-07 16:24:00,37.8,15.1,21.65,West,270,5.0,6.0,39,0.00,,,0.01,meteohub,2013-03-07 22:24:00,
2013-03-07 16:29:00,36.3,13.1,21.65,WSW,248,4.0,6.0,38,0.00,,,0.01,meteohub,2013-03-07 22:29:00,
2013-03-07 16:34:00,37.0,14.4,21.65,SW,225,6.0,6.0,39,0.00,,,0.01,meteohub,2013-03-07 22:34:00,
2013-03-07 16:39:00,37.0,13.8,21.65,West,270,4.0,6.0,38,0.00,,,0.01,meteohub,2013-03-07 22:39:00,
2013-03-07 16:44:00,37.0,14.4,21.65,West,270,5.0,6.0,39,0.00,,,0.01,meteohub,2013-03-07 22:44:00,
2013-03-07 16:49:00,36.7,13.5,21.65,West,270,4.0,6.0,38,0.00,,,0.01,meteohub,2013-03-07 22:49:00,
2013-03-07 16:54:00,36.5,13.3,21.65,West,270,6.0,7.0,38,0.00,,,0.01,meteohub,2013-03-07 22:54:00,
2013-03-07 16:59:00,35.6,12.6,21.65,West,270,3.0,7.0,38,0.00,,,0.01,meteohub,2013-03-07 22:59:00,
2013-03-07 17:04:00,35.4,13.5,21.65,West,270,5.0,8.0,40,0.00,,,0.01,meteohub,2013-03-07 23:04:00,
2013-03-07 17:09:00,35.1,13.1,21.65,SW,225,7.0,8.0,40,0.00,,,0.01,meteohub,2013-03-07 23:09:00,
2013-03-07 17:14:00,34.2,12.9,21.65,SW,225,7.0,8.0,41,0.00,,,0.01,meteohub,2013-03-07 23:14:00,
2013-03-07 17:19:00,33.6,12.9,21.64,WSW,248,5.0,7.0,42,0.00,,,0.01,meteohub,2013-03-07 23:19:00,
2013-03-07 17:24:00,33.3,13.1,21.64,SW,225,3.0,7.0,43,0.00,,,0.01,meteohub,2013-03-07 23:24:00,
2013-03-07 17:29:00,32.9,13.5,21.63,SW,225,7.0,8.0,44,0.00,,,0.01,meteohub,2013-03-07 23:29:00,
2013-03-07 17:34:00,32.2,13.3,21.63,West,270,4.0,8.0,45,0.00,,,0.01,meteohub,2013-03-07 23:34:00,
2013-03-07 17:39:00,31.8,13.8,21.63,SW,225,8.0,8.0,47,0.00,,,0.01,meteohub,2013-03-07 23:39:00,
2013-03-07 17:44:00,31.1,14.2,21.63,SW,225,7.0,10.0,49,0.00,,,0.01,meteohub,2013-03-07 23:44:00,
2013-03-07 17:49:00,30.6,14.2,21.63,NW,315,8.0,10.0,50,0.00,,,0.01,meteohub,2013-03-07 23:49:00,
2013-03-07 17:54:00,30.0,14.5,21.63,SW,225,7.0,11.0,52,0.00,,,0.01,meteohub,2013-03-07 23:54:00,
2013-03-07 17:59:00,29.5,14.5,21.62,SW,225,8.0,11.0,53,0.00,,,0.01,meteohub,2013-03-07 23:59:00,
2013-03-07 18:04:00,29.5,14.5,21.63,SW,225,6.0,11.0,53,0.00,,,0.01,meteohub,2013-03-08 00:04:00,
2013-03-07 18:09:00,28.9,14.4,21.63,SW,225,8.0,8.0,54,0.00,,,0.00,meteohub,2013-03-08 00:09:00,
2013-03-07 18:14:00,28.6,14.5,21.63,South,180,3.0,8.0,55,0.00,,,0.00,meteohub,2013-03-08 00:14:00,
2013-03-07 18:19:00,28.2,12.4,21.62,West,270,1.0,8.0,51,0.00,,,0.00,meteohub,2013-03-08 00:19:00,
2013-03-07 18:24:00,27.9,12.0,21.62,South,180,2.0,8.0,51,0.00,,,0.00,meteohub,2013-03-08 00:24:00,
2013-03-07 18:29:00,27.5,11.7,21.62,SW,225,2.0,5.0,51,0.00,,,0.00,meteohub,2013-03-08 00:29:00,
2013-03-07 18:34:00,27.3,12.0,21.62,South,180,2.0,4.0,52,0.00,,,0.00,meteohub,2013-03-08 00:34:00,
2013-03-07 18:39:00,27.1,12.2,21.62,SW,225,2.0,3.0,53,0.00,,,0.00,meteohub,2013-03-08 00:39:00,
2013-03-07 18:44:00,27.0,12.0,21.62,South,180,1.0,3.0,53,0.00,,,0.00,meteohub,2013-03-08 00:44:00,
2013-03-07 18:49:00,26.8,12.4,21.62,SW,225,3.0,3.0,54,0.00,,,0.00,meteohub,2013-03-08 00:49:00,
2013-03-07 18:54:00,26.6,12.2,21.62,SW,225,2.0,4.0,54,0.00,,,0.00,meteohub,2013-03-08 00:54:00,
2013-03-07 18:59:00,26.6,12.2,21.62,SW,225,2.0,4.0,54,0.00,,,0.00,meteohub,2013-03-08 00:59:00,
2013-03-07 19:04:00,26.4,12.9,21.62,SW,225,1.0,4.0,56,0.00,,,0.00,meteohub,2013-03-08 01:04:00,
2013-03-07 19:09:00,26.1,12.6,21.61,SW,225,2.0,3.0,56,0.00,,,0.00,meteohub,2013-03-08 01:09:00,
2013-03-07 19:14:00,26.1,12.6,21.62,SW,225,2.0,3.0,56,0.00,,,0.00,meteohub,2013-03-08 01:14:00,
2013-03-07 19:19:00,25.7,12.2,21.61,South,180,2.0,4.0,56,0.00,,,0.00,meteohub,2013-03-08 01:19:00,
2013-03-07 19:24:00,25.3,11.8,21.61,South,180,2.0,4.0,56,0.00,,,0.00,meteohub,2013-03-08 01:24:00,
2013-03-07 19:29:00,25.2,12.0,21.62,South,180,2.0,4.0,57,0.00,,,0.00,meteohub,2013-03-08 01:29:00,
2013-03-07 19:34:00,25.0,11.8,21.62,South,180,1.0,2.0,57,0.00,,,0.00,meteohub,2013-03-08 01:34:00,
2013-03-07 19:39:00,24.8,12.2,21.61,SW,225,1.0,2.0,58,0.00,,,0.00,meteohub,2013-03-08 01:39:00,
2013-03-07 19:44:00,24.6,12.4,21.62,SW,225,1.0,2.0,59,0.00,,,0.00,meteohub,2013-03-08 01:44:00,
2013-03-07 19:49:00,24.4,12.6,21.62,SW,225,1.0,2.0,60,0.00,,,0.00,meteohub,2013-03-08 01:49:00,
2013-03-07 19:54:00,24.3,12.4,21.62,SW,225,2.0,2.0,60,0.00,,,0.00,meteohub,2013-03-08 01:54:00,
2013-03-07 19:59:00,24.1,12.2,21.61,West,270,0.0,2.0,60,0.00,,,0.00,meteohub,2013-03-08 01:59:00,
2013-03-07 20:04:00,24.1,12.2,21.61,West,270,0.0,2.0,60,0.00,,,0.00,meteohub,2013-03-08 02:04:00,
2013-03-07 20:09:00,23.9,12.0,21.62,SW,225,1.0,2.0,60,0.00,,,0.00,meteohub,2013-03-08 02:09:00,
2013-03-07 20:14:00,23.5,11.7,21.61,South,180,2.0,2.0,60,0.00,,,0.00,meteohub,2013-03-08 02:14:00,
2013-03-07 20:19:00,23.4,11.8,21.61,South,180,0.0,2.0,61,0.00,,,0.00,meteohub,2013-03-08 02:19:00,
2013-03-07 20:24:00,23.2,11.7,21.61,West,270,1.0,2.0,61,0.00,,,0.00,meteohub,2013-03-08 02:24:00,
2013-03-07 20:29:00,22.8,11.3,21.61,SW,225,1.0,2.0,61,0.00,,,0.00,meteohub,2013-03-08 02:29:00,
2013-03-07 20:34:00,22.6,11.7,21.61,SW,225,2.0,2.0,62,0.00,,,0.00,meteohub,2013-03-08 02:34:00,
2013-03-07 20:39:00,22.5,11.5,21.61,South,180,2.0,2.0,62,0.00,,,0.00,meteohub,2013-03-08 02:39:00,
2013-03-07 20:44:00,22.5,11.8,21.61,West,270,1.0,2.0,63,0.00,,,0.00,meteohub,2013-03-08 02:44:00,
2013-03-07 20:49:00,22.3,11.7,21.61,SW,225,2.0,2.0,63,0.00,,,0.00,meteohub,2013-03-08 02:49:00,
2013-03-07 20:54:00,22.5,12.2,21.61,West,270,2.0,2.0,64,0.00,,,0.00,meteohub,2013-03-08 02:54:00,
2013-03-07 20:59:00,22.8,12.6,21.61,South,180,2.0,2.0,64,0.00,,,0.00,meteohub,2013-03-08 02:59:00,
2013-03-07 21:04:00,23.0,12.2,21.61,SW,225,2.0,2.0,63,0.00,,,0.00,meteohub,2013-03-08 03:04:00,
2013-03-07 21:09:00,23.2,12.4,21.60,SW,225,2.0,2.0,63,0.00,,,0.00,meteohub,2013-03-08 03:09:00,
2013-03-07 21:14:00,23.2,12.4,21.61,SW,225,2.0,3.0,63,0.00,,,0.00,meteohub,2013-03-08 03:14:00,
2013-03-07 21:18:00,23.0,12.2,21.60,SW,225,2.0,3.0,63,0.00,,,0.00,meteohub,2013-03-08 03:18:00,
2013-03-07 21:23:00,23.0,12.2,21.61,SW,225,2.0,3.0,63,0.00,,,0.00,meteohub,2013-03-08 03:23:00,
2013-03-07 21:28:00,23.0,11.8,21.60,SW,225,2.0,4.0,62,0.00,,,0.00,meteohub,2013-03-08 03:28:00,
2013-03-07 21:33:00,22.6,12.0,21.60,SW,225,2.0,4.0,63,0.00,,,0.00,meteohub,2013-03-08 03:33:00,
2013-03-07 21:38:00,22.6,12.0,21.61,SW,225,0.0,4.0,63,0.00,,,0.00,meteohub,2013-03-08 03:38:00,
2013-03-07 21:43:00,22.5,11.8,21.61,SW,225,1.0,3.0,63,0.00,,,0.00,meteohub,2013-03-08 03:43:00,
2013-03-07 21:48:00,22.1,11.5,21.60,SW,225,1.0,2.0,63,0.00,,,0.00,meteohub,2013-03-08 03:48:00,
2013-03-07 21:53:00,21.7,11.1,21.61,West,270,3.0,3.0,63,0.00,,,0.00,meteohub,2013-03-08 03:53:00,
2013-03-07 21:58:00,21.7,11.1,21.61,South,180,1.0,3.0,63,0.00,,,0.00,meteohub,2013-03-08 03:58:00,
2013-03-07 22:03:00,21.7,11.1,21.60,SW,225,2.0,3.0,63,0.00,,,0.00,meteohub,2013-03-08 04:03:00,
2013-03-07 22:08:00,21.2,10.6,21.60,SW,225,0.0,3.0,63,0.00,,,0.00,meteohub,2013-03-08 04:08:00,
2013-03-07 22:13:00,21.0,10.8,21.60,SW,225,1.0,2.0,64,0.00,,,0.00,meteohub,2013-03-08 04:13:00,
2013-03-07 22:18:00,21.0,10.8,21.60,SW,225,0.0,2.0,64,0.00,,,0.00,meteohub,2013-03-08 04:18:00,
2013-03-07 22:23:00,20.7,10.4,21.60,South,180,1.0,2.0,64,0.00,,,0.00,meteohub,2013-03-08 04:23:00,
2013-03-07 22:28:00,20.3,10.0,21.60,South,180,1.0,2.0,64,0.00,,,0.00,meteohub,2013-03-08 04:28:00,
2013-03-07 22:33:00,20.1,9.9,21.60,South,180,0.0,2.0,64,0.00,,,0.00,meteohub,2013-03-08 04:33:00,
2013-03-07 22:38:00,19.9,9.7,21.60,South,180,1.0,2.0,64,0.00,,,0.00,meteohub,2013-03-08 04:38:00,
2013-03-07 22:43:00,19.9,10.0,21.60,South,180,2.0,2.0,65,0.00,,,0.00,meteohub,2013-03-08 04:43:00,
2013-03-07 22:48:00,19.6,9.7,21.61,South,180,2.0,2.0,65,0.00,,,0.00,meteohub,2013-03-08 04:48:00,
2013-03-07 22:53:00,19.4,9.5,21.62,South,180,3.0,3.0,65,0.00,,,0.00,meteohub,2013-03-08 04:53:00,
2013-03-07 22:58:00,19.2,8.1,21.62,SW,225,2.0,3.0,61,0.00,,,0.00,meteohub,2013-03-08 04:58:00,
2013-03-07 23:00:00,19.2,8.1,21.61,South,180,1.0,3.0,61,0.00,,,0.00,meteohub,2013-03-08 05:00:00,
2013-03-07 23:02:00,19.0,7.9,21.62,South,180,2.0,3.0,61,0.00,,,0.00,meteohub,2013-03-08 05:02:00,
2013-03-07 23:07:00,18.9,7.7,21.61,NW,315,0.0,3.0,61,0.00,,,0.00,meteohub,2013-03-08 05:07:00,
2013-03-07 23:12:00,19.0,7.9,21.62,SW,225,2.0,2.0,61,0.00,,,0.00,meteohub,2013-03-08 05:12:00,
2013-03-07 23:17:00,19.0,8.2,21.61,West,270,1.0,2.0,62,0.00,,,0.00,meteohub,2013-03-08 05:17:00,
2013-03-07 23:22:00,19.2,8.4,21.61,South,180,3.0,3.0,62,0.00,,,0.00,meteohub,2013-03-08 05:22:00,
2013-03-07 23:27:00,19.4,9.9,21.61,South,180,2.0,3.0,66,0.00,,,0.00,meteohub,2013-03-08 05:27:00,
2013-03-07 23:32:00,19.4,9.9,21.61,West,270,2.0,3.0,66,0.00,,,0.00,meteohub,2013-03-08 05:32:00,
2013-03-07 23:37:00,19.8,10.2,21.61,South,180,2.0,3.0,66,0.00,,,0.00,meteohub,2013-03-08 05:37:00,
2013-03-07 23:42:00,19.6,10.0,21.61,SE,135,2.0,3.0,66,0.00,,,0.00,meteohub,2013-03-08 05:42:00,
2013-03-07 23:47:00,19.4,9.9,21.60,South,180,0.0,3.0,66,0.00,,,0.00,meteohub,2013-03-08 05:47:00,
2013-03-07 23:52:00,19.0,8.2,21.60,South,180,0.0,2.0,62,0.00,,,0.00,meteohub,2013-03-08 05:52:00,
2013-03-07 23:57:00,18.5,7.3,21.60,South,180,0.0,2.0,61,0.00,,,0.00,meteohub,2013-03-08 05:57:00,